Location: Maiden
(35.5760°N, 81.2120°W)
Time: 17:17:54
(UTC-04:00)

Cosmos 2056 Rocket - Pass Details

Date: 14 June 2018
Orbit: 743 x 800 km, 74.0° (Epoch: 19 June)

Event Time Altitude Azimuth Distance (km) Brightness Sun altitude
Rises 22:08:58 0° 344° (NNW) 3,193 7.8 -15.0°
Reaches altitude 10° 22:11:20 10° 346° (NNW) 2,270 6.9 -15.4°
Maximum altitude 22:16:28 76° 72° (ENE) 778 3.4 -16.1°
Enters shadow 22:19:26 26° 155° (SSE) 1,458 4.4 -16.5°
